Simultaneous Nadir Overpasses (SNOs) Predictions

Prediction of SNOs between NOAA-20 and NOAA-19 Satellite Orbit:

Table of predicted SNOs for the next 14.0 days since TLE Epoch: 2/21/2020
Index Date (NOAA-20) Time (NOAA-20) Lat,Lon (NOAA-20) SZA (NOAA-20 ) Date (NOAA-19) Time (NOAA-19) Lat,Lon (NOAA-19) SZA (NOAA-19 ) Distance(km) Time Diff (sec)
1 03/05/2020 19:04:47 -79.53, 39.17 92.73 03/05/2020 19:03:43 -79.52, 39.05 92.70 2.80 64
2 03/05/2020 19:55:32 79.53,-153.49 87.26 03/05/2020 19:54:37 79.53,-153.59 87.29 2.03 55
3 03/05/2020 20:46:17 -79.54, 13.78 92.75 03/05/2020 20:45:43 -79.54, 13.74 92.73 0.82 34
4 03/05/2020 21:37:02 79.53,-178.89 87.23 03/05/2020 21:36:37 79.55,-178.90 87.26 1.60 25
5 03/05/2020 22:27:47 -79.54, -11.61 92.78 03/05/2020 22:27:43 -79.56, -11.57 92.76 2.41 4
6 03/05/2020 23:18:33 79.57, 155.45 87.27 03/05/2020 23:18:38 79.54, 155.50 87.23 3.52 5
7 03/06/2020 00:09:17 -79.54, -37.01 92.80 03/06/2020 00:09:44 -79.55, -37.16 92.79 3.31 27
8 03/06/2020 01:00:03 79.57, 130.05 87.24 03/06/2020 01:00:38 79.56, 130.19 87.20 3.15 35
9 03/06/2020 01:50:47 -79.54, -62.40 92.83 03/06/2020 01:51:44 -79.57, -62.47 92.82 3.15 57
10 03/06/2020 02:41:33 79.57, 104.66 87.22 03/06/2020 02:42:39 79.55, 104.59 87.17 3.11 66




NCC Satellite Simultaneous Nadir Overpasses (SNOs) Prediction Service
